星链-36506(STARLINK-36506)

导读 | 豆包AI

STARLINK-36506是美国SpaceX星链计划的卫星,于2026年1月12日发射升空。星链项目旨在构建全球卫星互联网星座,为地面偏远地区提供高速宽带连接,该卫星加入后,进一步扩充了星链低轨卫星星座规模,持续推进全球覆盖的组网进程,助力卫星互联网服务能力升级。

基本信息
目录编号:
67414
目录名称:
STARLINK-36506
国际标识:
2026-005L
轨道中心:
EARTH
卫星名称:
星链-36506
卫星全名:
星链-36506(STARLINK-36506)
卫星状态:
在轨 (已飞行133 天)
发射日期:
2026-01-12 UTC
国别 :
美国 (US)
星等 :
--
轨道信息
数据来源 国际轨道数据 AOE轨道数据
星历时间 2026-05-25T10:14:42+0800
7小时前
查看轨道信息
2026-05-23T02:00:00+0800
2天前
查看轨道信息
半长轴 6861.006km 6861.186km
偏心率 0.0001595 0.000115
轨道倾角 43.000° 42.999°
近地点辐角 268.797° 274.238°
升交点赤经 166.303° 179.542°
平近点角 91.270° 142.777°
近地点 481.774km 482.259km
远地点 483.964km 483.839km
周期 94.263分钟 94.267分钟
每日圈数 15.276403 15.275803
详细信息
固有亮度:
5
最大亮度:
2.5
卫星平台:
Starlink V1.0
覆盖范围:
全球
运营商:
太空探索技术公司
运营商所在国:
美国
制造商(研发单位):
太空探索技术公司
制造商所在国:
美国
使用方式:
暂无
卫星简介
Starlink 计划是 SpaceX 推出的全球卫星互联网项目,通过发射低轨道卫星,为全球尤其是偏远地区提供高速、低延迟的互联网服务。自 2019 年起,Starlink 已部署数千颗卫星,旨在缩小全球数字鸿沟,推动互联网普及。该项目还为军事、航空等行业提供通信支持,带来广泛经济效益。
2D轨道图
3D轨道图
轨道高度分析图
轨道倾角分析图
轨道综合分析图
查看轨道综合分析图